Martinsburg, WV

2:22 PM EDT on June 25, 2017 (GMT -0400)
Eastern W Va Regional-Shepherd

Weather History for KMRB - October, 2011

Change the Weather History Date:

Friday, October 28, 2011

  Actual Average Record
Temperature  
Mean Temperature 42 °F 50 °F  
Max Temperature 49 °F 62 °F 84 °F (2014)
Min Temperature 34 °F 39 °F 24 °F (1926)
Degree Days  
Heating Degree Days 23 15  
Month to date heating degree days 250 308  
Since 1 July heating degree days 293 399  
Cooling Degree Days 0 0  
Month to date cooling degree days 0 8  
Year to date cooling degree days 1284 893  
Moisture  
Dew Point 31 °F    
Average Humidity 67    
Maximum Humidity 92    
Minimum Humidity 42    
Precipitation  
Precipitation 0.13 in 0.10 in 2.50 in (1937)
Month to date precipitation 3.11 2.76  
Year to date precipitation 39.46 32.57  
Sea Level Pressure  
Sea Level Pressure 30.20 in    
Wind  
Wind Speed 4 mph (NE)    
Max Wind Speed 13 mph    
Max Gust Speed 16 mph    
Visibility 9 miles    
Events Rain    
T = Trace of Precipitation, MM = Missing Value Source: NWS Daily Summary

Daily Weather History Graph

Daily Weather History Graph

Search for Another Location

Airport or City:

Trip Planner

Search our weather history database for the weather conditions in past years. The results will help you decide how hot, cold, wet, or windy it might be!

Date:

Astronomy

Oct. 28, 2011 Rise Set
Actual Time 7:35 AM EDT 6:15 PM EDT
Civil Twilight 7:07 AM EDT 6:43 PM EDT
Nautical Twilight 6:36 AM EDT 7:14 PM EDT
Astronomical Twilight 6:04 AM EDT 7:45 PM EDT
Moon 9:47 AM EDT (10/28) 7:37 PM EDT (10/28)
Length of Visible Light 11h 35m
Length of Day
10h 40m
Waxing Crescent, 5% of the Moon is Illuminated
Oct 28
Waxing Crescent
Nov 2
First Quarter
Nov 10
Full
Nov 18
Last Quarter
Nov 25
New

Hourly Weather History & Observations

Time (EDT) Temp. Windchill Dew Point Humidity Pressure Visibility Wind Dir Wind Speed Gust Speed Precip Events Conditions
12:53 AM 41.0 °F 39.0 °F 30.0 °F 65% 30.10 in 10.0 mi North 3.5 mph - N/A   Mostly Cloudy
1:53 AM 39.9 °F 34.5 °F 30.0 °F 68% 30.12 in 10.0 mi NNW 8.1 mph - N/A   Partly Cloudy
2:53 AM 39.9 °F 33.4 °F 30.0 °F 68% 30.14 in 10.0 mi NW 10.4 mph - N/A   Clear
3:53 AM 39.2 °F 34.2 °F 30.2 °F 70% 30.14 in 10.0 mi North 6.9 mph - N/A   Clear
4:53 AM 37.9 °F 31.5 °F 30.0 °F 73% 30.17 in 10.0 mi North 9.2 mph - N/A   Clear
5:53 AM 37.4 °F 31.4 °F 28.4 °F 70% 30.17 in 10.0 mi North 8.1 mph - N/A   Clear
6:53 AM 37.0 °F 32.4 °F 28.0 °F 70% 30.20 in 10.0 mi North 5.8 mph - N/A   Clear
7:53 AM 36.0 °F 33.3 °F 28.0 °F 73% 30.22 in 10.0 mi North 3.5 mph - N/A   Clear
8:53 AM 37.9 °F - 30.0 °F 73% 30.25 in 10.0 mi Calm Calm - N/A   Clear
9:53 AM 42.1 °F 39.2 °F 28.0 °F 58% 30.24 in 10.0 mi North 4.6 mph - N/A   Clear
10:53 AM 45.0 °F - 28.0 °F 52% 30.26 in 10.0 mi Calm Calm - N/A   Clear
11:53 AM 46.0 °F - 28.0 °F 50% 30.26 in 10.0 mi Calm Calm - N/A   Clear
12:53 PM 48.2 °F - 28.4 °F 46% 30.23 in 10.0 mi Calm Calm - N/A   Clear
1:53 PM 48.0 °F - 27.0 °F 44% 30.22 in 10.0 mi Calm Calm - N/A   Clear
2:53 PM 48.0 °F - 27.0 °F 44% 30.20 in 10.0 mi Calm Calm - N/A   Partly Cloudy
3:53 PM 46.9 °F - 28.0 °F 48% 30.21 in 10.0 mi SSE 3.5 mph - N/A   Mostly Cloudy
4:53 PM 46.9 °F - 28.9 °F 50% 30.20 in 10.0 mi SSE 3.5 mph - N/A   Overcast
5:53 PM 46.0 °F - 30.9 °F 56% 30.20 in 10.0 mi Calm Calm - N/A   Overcast
6:53 PM 44.1 °F 40.8 °F 28.9 °F 55% 30.22 in 10.0 mi SE 5.8 mph - N/A   Overcast
7:46 PM 42.8 °F 41.1 °F 33.8 °F 70% 30.23 in 8.0 mi East 3.5 mph - 0.01 in Rain Light Rain
7:53 PM 42.1 °F 38.4 °F 34.0 °F 73% 30.24 in 7.0 mi ENE 5.8 mph - 0.01 in Rain Light Rain
8:53 PM 41.0 °F 39.0 °F 36.0 °F 82% 30.24 in 10.0 mi NNE 3.5 mph - 0.04 in Rain Light Rain
9:53 PM 39.9 °F 37.8 °F 36.0 °F 86% 30.23 in 7.0 mi ESE 3.5 mph - 0.02 in Rain Light Rain
10:17 PM 39.2 °F - 35.6 °F 87% 30.22 in 7.0 mi Calm Calm - 0.01 in Rain Light Rain
10:44 PM 39.2 °F - 35.6 °F 87% 30.21 in 10.0 mi Calm Calm - 0.02 in Rain Light Rain
10:53 PM 39.0 °F 36.8 °F 35.1 °F 86% 30.22 in 8.0 mi SSE 3.5 mph - 0.02 in Rain Light Rain
11:06 PM 39.2 °F - 35.6 °F 87% 30.20 in 8.0 mi Calm Calm - 0.01 in Rain Light Rain
11:37 PM 37.4 °F 34.9 °F 35.6 °F 93% 30.19 in 8.0 mi East 3.5 mph - 0.02 in Rain Light Rain
11:53 PM 37.9 °F - 35.1 °F 89% 30.19 in 8.0 mi Calm Calm - 0.03 in Rain Light Rain